Location: Unspecified
(0.0000°N, 0.0000°E)
Time: 18:58:19
(UTC+00:00)

deb Briz - Pass Details

Date: 17 February 2026
Orbit: 1683 x 2323 km, 64.7° (Epoch: 11 March)

Event Time Altitude Azimuth Distance (km) Brightness Sun altitude
Rises 19:38:37 0° 219° (SW) 5,638 ? -20.7°
Reaches altitude 10° 19:42:15 10° 225° (SW) 4,705 ? -21.6°
Maximum altitude 19:53:47 42° 291° (WNW) 2,977 ? -24.4°
Drops below altitude 10° 20:05:56 10° 359° (N) 4,895 ? -27.4°
Sets 20:09:53 0° 6° (N) 5,881 ? -28.3°
